NOAA 16 DEB, 41265

Orbit data source: Space-Track

NOAA 16 DEB, 41265 is space debris in SSO originally from a launch on Thu, 21 Sep 2000 UTC launched from the Air Force Western Test Range (AFWTR). Debris objects in space refer to the collection of defunct objects orbiting the Earth. Examples of debris include non-operational satellites, rocket bodies, and fragments generated from explosions, collisions, or faulty payload assembly.

Loading next visibility...
Identifier
41265, 2000-055FR
Orbit
SSO
Country
Flag of USUS
Related business
Manufacturer
Unknown
Mission
Spacecraft
Bus & Motor
Unknown
Mass
Unknown
Launch date (UTC)
2000-09-21 (25 years ago)
Launch vehicle
Unknown
Launch site
Air Force Western Test Range (AFWTR)
Object type
Payload
Rocket body
Debris
Shape & HBR
Unknown shape, 0.1 m
Radar Cross Section
Small (<0.1 m²)

Expand to show TLE details & history
Last TLE update: 2 days ago

TLE from 2 days ago
0 NOAA 16 DEB
1 41265U 00055FR  25301.25264896  .00005505  00000-0  24460-2 0  9994
2 41265  98.6363 304.7682 0030740 128.4618 231.9326 14.23079999506975
Epoch: 2025-10-28T06:03Z
TLE epoch observation values (Epoch: 2025-10-28T06:03:48.870Z)
Latitude
0.00002°
Longitude
176.97177°
Altitude
831.555 km
Speed
7.43 km/s
True Right ascension
20h 19m 04s
True Declination
0° 00' 00"
Sunlit
Object was in daylight at epoch
Visualization orbit readout
Latitude
Unknown
Longitude
Unknown
Altitude
Unknown
Speed
Unknown
Apparent Right ascension
Unknown
Apparent Declination
Unknown
Sunlit
N/A
Visualization observer readout
Local Sidereal Time
10:23:14
Azimuth
Unknown
Elevation
Unknown
Doppler factor
Unknown
Orbital elements
Apogee altitude
834.209 km
Perigee altitude
790.003 km
Semi-major axis
7,190.243 km
Eccentricity
0.00307
Inclination
98.6363°
RAAN
304.7682°
Arg. of periapsis
128.4618°
True anomaly
231.65593°
Mean anomaly
231.9326°
Eccentric anomaly
231.7942°
Mean motion
3.55982 °/min
Orbital period
101.13 mins
BSTAR
0.002446
Loading maneuver chart data...
Computing Atmospheric mass density...
Loading historical data...
Loading historical data...
Loading historical data...
Loading historical data...
Loading historical data...
Loading historical data...
Loading historical data...

Documentation

Showing up to 5 results
|